PAL210 YSSY-RPLL

Flight info

Callsign PAL210
Flight time N/A
Altitude 39000
Route RIC H530 LASUD Q293 BINAG DCT 2811S14752E 2255S14540E 1836S14309E 1800S14246E 1626S14142E 1503S14041E 1038S13701E 0717S13402E 0711S13357E 0412S13115E 0001S12727E DCT NITIP A461 ZAM A583 TOKON DCT LUBAN LUBAN5R
Aircraft A359/H-SDE2E3GHIJ1J3J4J5LM1ORWXY/LB1D1

Departure

Time 2026-05-05 15:49
Airport Sydney Kingsford Smith International Airport (YSSY)

Arrival

Time N/A
Airport Ninoy Aquino International Airport (RPLL)
Time Latitude Longitude Altitude Speed Heading
2026-05-05 14:18 -33.93827 151.16843 36 ft 0 kts 74°
2026-05-05 15:30 -33.93827 151.16841 36 ft 2 kts 74°
2026-05-05 15:30 -33.93833 151.16811 35 ft 4 kts 82°
2026-05-05 15:30 -33.93835 151.16779 33 ft 4 kts 96°
2026-05-05 15:30 -33.93831 151.16751 34 ft 4 kts 121°
2026-05-05 15:31 -33.93818 151.16733 33 ft 3 kts 161°
2026-05-05 15:31 -33.93819 151.16733 32 ft 3 kts 163°
2026-05-05 15:31 -33.93845 151.16742 35 ft 4 kts 163°
2026-05-05 15:31 -33.93871 151.16751 36 ft 4 kts 164°
2026-05-05 15:32 -33.93897 151.16759 36 ft 4 kts 164°
2026-05-05 15:32 -33.93924 151.16768 35 ft 4 kts 164°
2026-05-05 15:32 -33.93950 151.16777 36 ft 4 kts 164°
2026-05-05 15:32 -33.93966 151.16783 36 ft 0 kts 164°
2026-05-05 15:37 -33.93980 151.16787 36 ft 7 kts 164°
2026-05-05 15:37 -33.94032 151.16807 36 ft 9 kts 161°
2026-05-05 15:37 -33.94056 151.16861 36 ft 8 kts 89°
2026-05-05 15:38 -33.94039 151.16934 36 ft 10 kts 73°
2026-05-05 15:38 -33.94019 151.17020 36 ft 12 kts 74°
2026-05-05 15:38 -33.93995 151.17119 36 ft 13 kts 74°
2026-05-05 15:38 -33.93975 151.17196 35 ft 6 kts 61°
2026-05-05 15:39 -33.93936 151.17213 35 ft 6 kts
2026-05-05 15:39 -33.93885 151.17203 35 ft 8 kts 348°
2026-05-05 15:39 -33.93824 151.17187 35 ft 10 kts 348°
2026-05-05 15:39 -33.93754 151.17169 35 ft 11 kts 348°
2026-05-05 15:40 -33.93676 151.17149 35 ft 12 kts 348°
2026-05-05 15:40 -33.93591 151.17127 35 ft 13 kts 348°
2026-05-05 15:40 -33.93568 151.17121 35 ft 0 kts 348°
2026-05-05 15:41 -33.93564 151.17120 35 ft 4 kts 348°
2026-05-05 15:41 -33.93480 151.17098 35 ft 19 kts 348°
2026-05-05 15:41 -33.93403 151.17078 36 ft 0 kts 348°
2026-05-05 15:42 -33.93402 151.17078 36 ft 0 kts 348°
2026-05-05 15:43 -33.93398 151.17077 36 ft 3 kts 348°
2026-05-05 15:43 -33.93370 151.17068 36 ft 5 kts 344°
2026-05-05 15:43 -33.93334 151.17049 36 ft 6 kts 330°
2026-05-05 15:43 -33.93297 151.17013 35 ft 7 kts 308°
2026-05-05 15:44 -33.93260 151.16970 36 ft 8 kts 327°
2026-05-05 15:44 -33.93206 151.16949 36 ft 9 kts 347°
2026-05-05 15:44 -33.93141 151.16933 36 ft 10 kts 348°
2026-05-05 15:44 -33.93068 151.16914 36 ft 11 kts 348°
2026-05-05 15:45 -33.92999 151.16928 36 ft 10 kts 44°
2026-05-05 15:45 -33.92974 151.17005 36 ft 9 kts 78°
2026-05-05 15:45 -33.92973 151.17012 36 ft 0 kts 78°
2026-05-05 15:46 -33.92972 151.17012 36 ft 0 kts 78°
2026-05-05 15:46 -33.92972 151.17015 36 ft 1 kts 78°
2026-05-05 15:47 -33.92964 151.17062 37 ft 8 kts 78°
2026-05-05 15:47 -33.92960 151.17110 37 ft 9 kts 88°
2026-05-05 15:47 -33.93004 151.17179 36 ft 9 kts 164°
2026-05-05 15:47 -33.93044 151.17188 36 ft 0 kts 168°
2026-05-05 15:48 -33.93138 151.17211 37 ft 40 kts 168°
2026-05-05 15:48 -33.93632 151.17343 33 ft 104 kts 167°
2026-05-05 15:49 -33.94521 151.17571 36 ft 156 kts 167°
2026-05-05 15:49 -33.95721 151.17856 295 ft 179 kts 170°
2026-05-05 15:49 -33.96873 151.18140 1187 ft 160 kts 170°
2026-05-05 15:49 -33.97948 151.18328 1810 ft 162 kts 174°
2026-05-05 15:50 -33.99161 151.18248 1892 ft 185 kts 190°
2026-05-05 15:50 -34.00459 151.17858 2180 ft 199 kts 193°
2026-05-05 15:50 -34.01862 151.17496 2438 ft 215 kts 188°
2026-05-05 15:50 -34.03400 151.17490 2680 ft 231 kts 165°
2026-05-05 15:51 -34.04962 151.18098 3117 ft 240 kts 159°
2026-05-05 15:51 -34.06574 151.18726 3627 ft 247 kts 162°
2026-05-05 15:51 -34.08248 151.19319 4195 ft 253 kts 162°
2026-05-05 15:51 -34.09946 151.19904 4804 ft 256 kts 163°
2026-05-05 15:52 -34.11655 151.20491 5403 ft 259 kts 162°
2026-05-05 15:52 -34.13434 151.21103 5845 ft 268 kts 163°
2026-05-05 15:52 -34.15238 151.21700 5967 ft 270 kts 163°
2026-05-05 15:52 -34.17060 151.22290 5979 ft 269 kts 165°
2026-05-05 15:53 -34.18916 151.22518 6101 ft 271 kts 184°
2026-05-05 15:53 -34.20730 151.21886 6425 ft 275 kts 207°
2026-05-05 15:53 -34.22219 151.20463 6971 ft 277 kts 228°
2026-05-05 15:53 -34.23463 151.18680 7600 ft 277 kts 230°
2026-05-05 15:54 -34.24673 151.16843 8196 ft 279 kts 236°
2026-05-05 15:54 -34.25437 151.14693 8771 ft 282 kts 260°
2026-05-05 15:54 -34.25408 151.12352 9379 ft 282 kts 282°
2026-05-05 15:54 -34.24912 151.10049 9990 ft 284 kts 285°
2026-05-05 15:55 -34.24301 151.07752 10360 ft 294 kts 292°
2026-05-05 15:55 -34.23619 151.06311 10540 ft 301 kts 308°
2026-05-05 15:55 -34.21372 151.04279 11189 ft 307 kts 337°
2026-05-05 15:55 -34.19980 151.03783 11529 ft 310 kts 347°
2026-05-05 15:56 -34.17147 151.03166 12148 ft 316 kts 349°
2026-05-05 15:56 -34.14955 151.02682 12647 ft 320 kts 348°
2026-05-05 15:56 -34.12755 151.02183 13161 ft 323 kts 348°
2026-05-05 15:56 -34.11288 151.01847 13494 ft 325 kts 348°
2026-05-05 15:57 -34.09074 151.01239 14001 ft 328 kts 343°
2026-05-05 15:57 -34.06851 151.00453 14469 ft 330 kts 342°
2026-05-05 15:57 -34.04637 150.99677 14926 ft 333 kts 342°
2026-05-05 15:57 -34.02405 150.98916 15153 ft 335 kts 342°
2026-05-05 15:58 -34.00183 150.98169 15195 ft 335 kts 343°
2026-05-05 15:58 -33.97940 150.97295 15198 ft 336 kts 336°
2026-05-05 15:58 -33.95763 150.96188 15198 ft 352 kts 335°
2026-05-05 15:58 -33.93467 150.94986 15333 ft 364 kts 335°
2026-05-05 15:59 -33.91096 150.93758 15741 ft 367 kts 335°
2026-05-05 15:59 -33.88737 150.92544 16138 ft 371 kts 335°
2026-05-05 15:59 -33.86349 150.91321 16378 ft 379 kts 335°
2026-05-05 15:59 -33.83892 150.90053 16602 ft 386 kts 335°
2026-05-05 16:00 -33.81401 150.88768 16855 ft 393 kts 335°
2026-05-05 16:00 -33.78887 150.87475 17208 ft 396 kts 335°
2026-05-05 16:00 -33.76339 150.86167 17587 ft 399 kts 335°
2026-05-05 16:00 -33.73944 150.84939 17941 ft 401 kts 335°
2026-05-05 16:01 -33.71357 150.83612 18324 ft 403 kts 335°
2026-05-05 16:01 -33.68762 150.82283 18661 ft 406 kts 335°
2026-05-05 16:01 -33.66193 150.80969 18984 ft 408 kts 335°
2026-05-05 16:01 -33.63574 150.79629 19307 ft 409 kts 335°
2026-05-05 16:02 -33.60945 150.78217 19618 ft 411 kts 331°
2026-05-05 16:02 -33.58587 150.76369 19935 ft 409 kts 319°
2026-05-05 16:02 -33.56449 150.74119 20267 ft 410 kts 315°
2026-05-05 16:02 -33.54392 150.71745 20617 ft 410 kts 314°
2026-05-05 16:03 -33.52362 150.69322 20903 ft 413 kts 313°
2026-05-05 16:03 -33.50305 150.66858 21208 ft 415 kts 313°
2026-05-05 16:03 -33.48267 150.64439 21510 ft 416 kts 314°
2026-05-05 16:03 -33.46206 150.62022 21813 ft 418 kts 314°
2026-05-05 16:04 -33.44110 150.59583 22148 ft 419 kts 314°
2026-05-05 16:04 -33.41982 150.57123 22444 ft 421 kts 314°
2026-05-05 16:04 -33.39890 150.54711 22742 ft 423 kts 314°
2026-05-05 16:04 -33.37742 150.52248 23075 ft 424 kts 314°
2026-05-05 16:05 -33.35611 150.49797 23386 ft 426 kts 314°
2026-05-05 16:05 -33.33474 150.47336 23677 ft 427 kts 314°
2026-05-05 16:05 -33.31353 150.44892 23930 ft 429 kts 314°
2026-05-05 16:05 -33.29219 150.42434 24199 ft 429 kts 314°
2026-05-05 16:06 -33.27061 150.39952 24469 ft 430 kts 314°
2026-05-05 16:06 -33.24899 150.37468 24720 ft 431 kts 314°
2026-05-05 16:06 -33.22760 150.35014 24966 ft 432 kts 314°
2026-05-05 16:06 -33.20574 150.32508 25231 ft 433 kts 314°
2026-05-05 16:07 -33.18401 150.30019 25491 ft 433 kts 314°
2026-05-05 16:07 -33.16205 150.27502 25755 ft 434 kts 314°
2026-05-05 16:07 -33.14041 150.25027 25989 ft 436 kts 314°
2026-05-05 16:07 -33.11852 150.22524 26251 ft 436 kts 314°
2026-05-05 16:08 -33.09657 150.20017 26553 ft 437 kts 314°
2026-05-05 16:08 -33.07463 150.17512 26825 ft 438 kts 314°
2026-05-05 16:08 -33.05258 150.14996 27084 ft 439 kts 314°
2026-05-05 16:08 -33.03054 150.12483 27367 ft 439 kts 314°
2026-05-05 16:09 -33.00835 150.09954 27655 ft 440 kts 314°
2026-05-05 16:09 -32.98623 150.07437 27933 ft 441 kts 314°
2026-05-05 16:09 -32.96403 150.04911 28215 ft 442 kts 314°
2026-05-05 16:09 -32.94171 150.02374 28532 ft 443 kts 314°
2026-05-05 16:10 -32.91940 149.99846 28815 ft 444 kts 314°
2026-05-05 16:10 -32.89703 149.97311 29099 ft 445 kts 314°
2026-05-05 16:10 -32.87458 149.94764 29381 ft 446 kts 314°
2026-05-05 16:10 -32.85215 149.92219 29639 ft 447 kts 314°
2026-05-05 16:11 -32.82961 149.89664 29926 ft 448 kts 314°
2026-05-05 16:11 -32.76151 149.81960 30690 ft 452 kts 314°
2026-05-05 16:12 -32.73862 149.79380 30931 ft 453 kts 314°
2026-05-05 16:12 -32.69303 149.74243 31553 ft 451 kts 314°
2026-05-05 16:13 -32.62520 149.66603 32650 ft 445 kts 314°
2026-05-05 16:13 -32.60284 149.64089 33015 ft 443 kts 314°
2026-05-05 16:13 -32.58045 149.61573 33350 ft 441 kts 314°